Simultaneous Nadir Overpasses (SNOs) Predictions

Prediction of SNOs between NPP and TERRA Satellite Orbit:

Table of predicted SNOs for the next 14.0 days since TLE Epoch: 3/19/2015
Index Date (NPP) Time (NPP) Lat,Lon (NPP) SZA (NPP ) Date (TERRA) Time (TERRA) Lat,Lon (TERRA) SZA (TERRA ) Distance(km) Time Diff (sec)
1 03/21/2015 07:22:16 -69.02,-111.21 111.22 03/21/2015 07:22:45 -69.01,-111.14 111.24 3.13 29
2 03/21/2015 08:12:59 68.86, 56.32 68.60 03/21/2015 08:12:13 68.85, 56.30 68.60 1.29 46
3 03/23/2015 22:48:32 69.44,-163.34 68.17 03/23/2015 22:49:42 69.32,-162.49 68.03 35.97 70
4 03/23/2015 23:39:06 -68.92, 4.70 112.38 03/23/2015 23:39:17 -68.94, 4.65 112.36 3.36 11
5 03/24/2015 00:29:50 68.81, 172.16 67.50 03/24/2015 00:28:44 68.83, 172.16 67.52 2.40 66
6 03/26/2015 15:05:15 69.03, -46.99 66.69 03/26/2015 15:06:16 69.05, -46.96 66.71 3.10 61
7 03/26/2015 15:55:56 -68.88, 120.53 113.48 03/26/2015 15:55:47 -68.89, 120.47 113.46 3.26 9
8 03/26/2015 16:46:32 68.34, -71.46 65.97 03/26/2015 16:45:21 68.39, -72.51 66.03 43.58 71
9 03/29/2015 07:22:06 69.00, 68.82 65.61 03/29/2015 07:22:47 68.97, 68.82 65.58 3.01 41
10 03/29/2015 08:12:47 -68.84,-123.65 114.56 03/29/2015 08:12:17 -68.87,-123.68 114.54 3.25 30
11 03/31/2015 22:48:29 -69.93, 15.96 114.47 03/31/2015 22:49:36 -69.80, 18.16 114.62 85.26 67
12 03/31/2015 23:38:57 68.98,-175.38 64.55 03/31/2015 23:39:16 68.97,-175.31 64.54 3.04 19
13 04/01/2015 00:29:38 -68.82, -7.85
